Wetterdaten: Dienstag, 23.06.2015
Datum Zeit Temp. A. Feuchte A. Luftdruck Regen Wind Richtung Richtung Sonnenschein ET UV Solar Taupunkt Windchill Windben Empfang
23.06.2015 00:00 11,3 C 95 % 1006,8 hPa 0,0 l/m 11,9 km/h (2 Bft) S 173 0 min 0,000 mm 0,0 UV-I 0 W/m 10,5 C 8,1 C 15,8 km/h (3 Bft) 0,00 %
23.06.2015 00:05 11,4 C 94 % 1006,8 hPa 0,0 l/m 1,8 km/h (1 Bft) O-SO 106 0 min 0,000 mm 0,0 UV-I 0 W/m 10,5 C 11,4 C 4,0 km/h (1 Bft) 0,00 %
23.06.2015 00:10 11,4 C 93 % 1006,8 hPa 0,0 l/m 9,0 km/h (2 Bft) O-SO 122 0 min 0,000 mm 0,0 UV-I 0 W/m 10,3 C 9,7 C 11,9 km/h (2 Bft) 0,00 %
23.06.2015 00:15 11,4 C 93 % 1006,7 hPa 0,0 l/m 1,8 km/h (1 Bft) O-SO 104 0 min 0,000 mm 0,0 UV-I 0 W/m 10,3 C 11,4 C 4,0 km/h (1 Bft) 0,00 %
23.06.2015 00:20 11,3 C 93 % 1006,6 hPa 0,0 l/m 4,3 km/h (1 Bft) O-SO 106 0 min 0,000 mm 0,0 UV-I 0 W/m 10,2 C 11,3 C 7,9 km/h (2 Bft) 0,00 %
23.06.2015 00:25 11,3 C 92 % 1006,6 hPa 0,0 l/m 0,0 km/h (0 Bft) O-SO 116 0 min 0,000 mm 0,0 UV-I 0 W/m 10,0 C 11,3 C 0,0 km/h (0 Bft) 0,00 %
23.06.2015 00:30 11,3 C 92 % 1006,2 hPa 0,0 l/m 2,2 km/h (1 Bft) SO 143 0 min 0,000 mm 0,0 UV-I 0 W/m 10,0 C 11,3 C 4,0 km/h (1 Bft) 0,00 %
23.06.2015 00:35 11,3 C 92 % 1006,2 hPa 0,0 l/m 2,9 km/h (1 Bft) SO 133 0 min 0,000 mm 0,0 UV-I 0 W/m 10,0 C 11,3 C 4,0 km/h (1 Bft) 0,00 %
23.06.2015 00:40 11,3 C 93 % 1006,0 hPa 0,0 l/m 0,0 km/h (0 Bft) SW 231 0 min 0,000 mm 0,0 UV-I 0 W/m 10,2 C 11,3 C 0,0 km/h (0 Bft) 0,00 %
23.06.2015 00:45 11,3 C 93 % 1005,8 hPa 0,0 l/m 0,0 km/h (0 Bft) S 170 0 min 0,000 mm 0,0 UV-I 0 W/m 10,2 C 11,3 C 0,0 km/h (0 Bft) 0,00 %
23.06.2015 00:50 11,3 C 93 % 1005,6 hPa 0,0 l/m 5,4 km/h (1 Bft) O 98 0 min 0,000 mm 0,0 UV-I 0 W/m 10,2 C 11,3 C 7,9 km/h (2 Bft) 0,00 %
23.06.2015 00:55 11,2 C 93 % 1005,5 hPa 0,0 l/m 2,2 km/h (1 Bft) O 98 0 min 0,000 mm 0,0 UV-I 0 W/m 10,1 C 11,2 C 4,0 km/h (1 Bft) 0,00 %
23.06.2015 01:00 11,2 C 93 % 1005,5 hPa 0,0 l/m 0,0 km/h (0 Bft) O 83 0 min 0,000 mm 0,0 UV-I 0 W/m 10,1 C 11,2 C 0,0 km/h (0 Bft) 0,00 %
23.06.2015 01:05 11,1 C 93 % 1005,4 hPa 0,0 l/m 0,0 km/h (0 Bft) O-SO 111 0 min 0,000 mm 0,0 UV-I 0 W/m 10,0 C 11,1 C 0,0 km/h (0 Bft) 0,00 %
23.06.2015 01:10 11,0 C 94 % 1005,2 hPa 0,0 l/m 1,4 km/h (1 Bft) NO 52 0 min 0,000 mm 0,0 UV-I 0 W/m 10,1 C 11,0 C 4,0 km/h (1 Bft) 0,00 %
23.06.2015 01:15 10,9 C 94 % 1005,2 hPa 0,0 l/m 0,0 km/h (0 Bft) SO 129 0 min 0,000 mm 0,0 UV-I 0 W/m 10,0 C 10,9 C 0,0 km/h (0 Bft) 0,00 %
23.06.2015 01:20 10,8 C 95 % 1005,1 hPa 0,0 l/m 0,0 km/h (0 Bft) O-SO 102 0 min 0,000 mm 0,0 UV-I 0 W/m 10,0 C 10,8 C 0,0 km/h (0 Bft) 0,00 %
23.06.2015 01:25 10,7 C 95 % 1004,7 hPa 0,0 l/m 0,0 km/h (0 Bft) S 173 0 min 0,000 mm 0,0 UV-I 0 W/m 9,9 C 10,7 C 0,0 km/h (0 Bft) 0,00 %
23.06.2015 01:30 10,6 C 95 % 1004,8 hPa 0,0 l/m 0,4 km/h (0 Bft) W-SW 258 0 min 0,000 mm 0,0 UV-I 0 W/m 9,8 C 10,6 C 4,0 km/h (1 Bft) 0,00 %
23.06.2015 01:35 10,5 C 96 % 1004,8 hPa 0,0 l/m 0,0 km/h (0 Bft) S-SW 201 0 min 0,000 mm 0,0 UV-I 0 W/m 9,9 C 10,5 C 0,0 km/h (0 Bft) 0,00 %
23.06.2015 01:40 10,5 C 96 % 1004,7 hPa 0,0 l/m 0,0 km/h (0 Bft) O 81 0 min 0,000 mm 0,0 UV-I 0 W/m 9,9 C 10,5 C 0,0 km/h (0 Bft) 0,00 %
23.06.2015 01:45 10,5 C 97 % 1004,8 hPa 0,0 l/m 0,0 km/h (0 Bft) S-SO 153 0 min 0,000 mm 0,0 UV-I 0 W/m 10,0 C 10,5 C 0,0 km/h (0 Bft) 0,00 %
23.06.2015 01:50 10,6 C 97 % 1004,5 hPa 0,0 l/m 0,0 km/h (0 Bft) O-SO 102 0 min 0,000 mm 0,0 UV-I 0 W/m 10,1 C 10,6 C 0,0 km/h (0 Bft) 0,00 %
23.06.2015 01:55 10,5 C 97 % 1004,7 hPa 0,0 l/m 0,0 km/h (0 Bft) NO 51 0 min 0,000 mm 0,0 UV-I 0 W/m 10,0 C 10,5 C 0,0 km/h (0 Bft) 0,00 %
23.06.2015 02:00 10,5 C 98 % 1004,3 hPa 0,0 l/m 0,0 km/h (0 Bft) S-SO 147 0 min 0,000 mm 0,0 UV-I 0 W/m 10,2 C 10,5 C 0,0 km/h (0 Bft) 0,00 %
23.06.2015 02:05 10,4 C 98 % 1004,1 hPa 0,0 l/m 0,0 km/h (0 Bft) O 88 0 min 0,000 mm 0,0 UV-I 0 W/m 10,1 C 10,4 C 0,0 km/h (0 Bft) 0,00 %
23.06.2015 02:10 10,4 C 98 % 1003,8 hPa 0,0 l/m 0,0 km/h (0 Bft) O-NO 64 0 min 0,000 mm 0,0 UV-I 0 W/m 10,1 C 10,4 C 0,0 km/h (0 Bft) 0,00 %
23.06.2015 02:15 10,3 C 98 % 1004,2 hPa 0,0 l/m 0,0 km/h (0 Bft) N-NW 328 0 min 0,000 mm 0,0 UV-I 0 W/m 10,0 C 10,3 C 0,0 km/h (0 Bft) 0,00 %
23.06.2015 02:20 10,3 C 98 % 1004,2 hPa 0,0 l/m 0,0 km/h (0 Bft) NW 315 0 min 0,000 mm 0,0 UV-I 0 W/m 10,0 C 10,3 C 0,0 km/h (0 Bft) 0,00 %
23.06.2015 02:25 10,3 C 98 % 1004,3 hPa 0,0 l/m 0,0 km/h (0 Bft) W-SW 256 0 min 0,000 mm 0,0 UV-I 0 W/m 10,0 C 10,3 C 0,0 km/h (0 Bft) 0,00 %
23.06.2015 02:30 10,3 C 98 % 1004,4 hPa 0,0 l/m 0,0 km/h (0 Bft) S-SW 210 0 min 0,000 mm 0,0 UV-I 0 W/m 10,0 C 10,3 C 0,0 km/h (0 Bft) 0,00 %
23.06.2015 02:35 10,4 C 98 % 1005,0 hPa 0,0 l/m 0,0 km/h (0 Bft) O-SO 110 0 min 0,000 mm 0,0 UV-I 0 W/m 10,1 C 10,4 C 0,0 km/h (0 Bft) 0,00 %
23.06.2015 02:40 10,4 C 98 % 1006,0 hPa 0,0 l/m 5,8 km/h (2 Bft) W-SW 247 0 min 0,000 mm 0,0 UV-I 0 W/m 10,1 C 10,4 C 11,9 km/h (2 Bft) 0,00 %
23.06.2015 02:45 10,5 C 98 % 1006,9 hPa 0,0 l/m 0,4 km/h (0 Bft) NW 320 0 min 0,000 mm 0,0 UV-I 0 W/m 10,2 C 10,5 C 4,0 km/h (1 Bft) 0,00 %
23.06.2015 02:50 10,6 C 98 % 1007,8 hPa 0,3 l/m 4,7 km/h (1 Bft) W-SW 252 0 min 0,000 mm 0,0 UV-I 0 W/m 10,3 C 10,6 C 7,9 km/h (2 Bft) 0,00 %
23.06.2015 02:55 10,7 C 98 % 1007,8 hPa 0,3 l/m 4,3 km/h (1 Bft) S 170 0 min 0,000 mm 0,0 UV-I 0 W/m 10,4 C 10,7 C 7,9 km/h (2 Bft) 0,00 %
23.06.2015 03:00 10,7 C 98 % 1008,0 hPa 0,0 l/m 0,4 km/h (0 Bft) NW 311 0 min 0,000 mm 0,0 UV-I 0 W/m 10,4 C 10,7 C 4,0 km/h (1 Bft) 0,00 %
23.06.2015 03:05 10,7 C 98 % 1008,2 hPa 0,6 l/m 3,2 km/h (1 Bft) W-SW 251 0 min 0,000 mm 0,0 UV-I 0 W/m 10,4 C 10,7 C 7,9 km/h (2 Bft) 0,00 %
23.06.2015 03:10 10,7 C 98 % 1008,5 hPa 1,2 l/m 0,0 km/h (0 Bft) SO 133 0 min 0,000 mm 0,0 UV-I 0 W/m 10,4 C 10,7 C 0,0 km/h (0 Bft) 0,00 %
23.06.2015 03:15 10,7 C 98 % 1008,4 hPa 0,6 l/m 0,0 km/h (0 Bft) S-SO 165 0 min 0,000 mm 0,0 UV-I 0 W/m 10,4 C 10,7 C 0,0 km/h (0 Bft) 0,00 %
23.06.2015 03:20 10,7 C 98 % 1008,4 hPa 0,0 l/m 0,0 km/h (0 Bft) S-SO 149 0 min 0,000 mm 0,0 UV-I 0 W/m 10,4 C 10,7 C 0,0 km/h (0 Bft) 0,00 %
23.06.2015 03:25 10,7 C 98 % 1008,8 hPa 0,0 l/m 0,0 km/h (0 Bft) W-SW 252 0 min 0,000 mm 0,0 UV-I 0 W/m 10,4 C 10,7 C 0,0 km/h (0 Bft) 0,00 %
23.06.2015 03:30 10,7 C 98 % 1009,0 hPa 0,3 l/m 0,0 km/h (0 Bft) NW 318 0 min 0,000 mm 0,0 UV-I 0 W/m 10,4 C 10,7 C 0,0 km/h (0 Bft) 0,00 %
23.06.2015 03:35 10,7 C 98 % 1009,3 hPa 0,0 l/m 0,0 km/h (0 Bft) O-SO 109 0 min 0,000 mm 0,0 UV-I 0 W/m 10,4 C 10,7 C 0,0 km/h (0 Bft) 0,00 %
23.06.2015 03:40 10,7 C 98 % 1009,6 hPa 0,0 l/m 0,0 km/h (0 Bft) S-SW 205 0 min 0,000 mm 0,0 UV-I 0 W/m 10,4 C 10,7 C 0,0 km/h (0 Bft) 0,00 %
23.06.2015 03:45 10,8 C 98 % 1009,6 hPa 0,3 l/m 0,0 km/h (0 Bft) W-SW 252 0 min 0,000 mm 0,0 UV-I 0 W/m 10,5 C 10,8 C 0,0 km/h (0 Bft) 0,00 %
23.06.2015 03:50 10,8 C 98 % 1009,5 hPa 0,0 l/m 0,4 km/h (0 Bft) O-SO 116 0 min 0,000 mm 0,0 UV-I 0 W/m 10,5 C 10,8 C 4,0 km/h (1 Bft) 0,00 %
23.06.2015 03:55 10,8 C 97 % 1009,5 hPa 0,3 l/m 0,0 km/h (0 Bft) O 100 0 min 0,000 mm 0,0 UV-I 0 W/m 10,3 C 10,8 C 0,0 km/h (0 Bft) 0,00 %
23.06.2015 04:00 10,9 C 97 % 1009,3 hPa 0,3 l/m 0,0 km/h (0 Bft) S-SW 211 0 min 0,000 mm 0,0 UV-I 0 W/m 10,4 C 10,9 C 0,0 km/h (0 Bft) 0,00 %
23.06.2015 04:05 10,9 C 97 % 1009,5 hPa 0,0 l/m 0,0 km/h (0 Bft) S-SW 211 0 min 0,000 mm 0,0 UV-I 0 W/m 10,4 C 10,9 C 0,0 km/h (0 Bft) 0,00 %
23.06.2015 04:10 11,0 C 97 % 1009,2 hPa 0,3 l/m 0,0 km/h (0 Bft) SW 216 0 min 0,000 mm 0,0 UV-I 0 W/m 10,5 C 11,0 C 0,0 km/h (0 Bft) 0,00 %
23.06.2015 04:15 11,0 C 97 % 1009,0 hPa 0,0 l/m 0,0 km/h (0 Bft) O-NO 68 0 min 0,000 mm 0,0 UV-I 0 W/m 10,5 C 11,0 C 0,0 km/h (0 Bft) 0,00 %
23.06.2015 04:20 11,1 C 97 % 1009,1 hPa 0,0 l/m 0,0 km/h (0 Bft) SO 144 0 min 0,000 mm 0,0 UV-I 0 W/m 10,6 C 11,1 C 0,0 km/h (0 Bft) 0,00 %
23.06.2015 04:25 11,2 C 97 % 1009,1 hPa 0,0 l/m 0,0 km/h (0 Bft) S-SO 159 0 min 0,000 mm 0,0 UV-I 0 W/m 10,7 C 11,2 C 0,0 km/h (0 Bft) 0,00 %
23.06.2015 04:30 11,2 C 97 % 1008,8 hPa 0,0 l/m 0,0 km/h (0 Bft) N 356 0 min 0,000 mm 0,0 UV-I 0 W/m 10,7 C 11,2 C 0,0 km/h (0 Bft) 0,00 %
23.06.2015 04:35 11,2 C 97 % 1008,9 hPa 0,0 l/m 0,0 km/h (0 Bft) SO 131 0 min 0,000 mm 0,0 UV-I 0 W/m 10,7 C 11,2 C 0,0 km/h (0 Bft) 0,00 %
23.06.2015 04:40 11,3 C 97 % 1009,0 hPa 0,0 l/m 0,0 km/h (0 Bft) O 93 0 min 0,000 mm 0,0 UV-I 0 W/m 10,8 C 11,3 C 0,0 km/h (0 Bft) 0,00 %
23.06.2015 04:45 11,3 C 97 % 1008,9 hPa 0,0 l/m 0,0 km/h (0 Bft) W-SW 251 0 min 0,000 mm 0,0 UV-I 0 W/m 10,8 C 11,3 C 0,0 km/h (0 Bft) 0,00 %
23.06.2015 04:50 11,3 C 97 % 1008,7 hPa 0,0 l/m 1,8 km/h (1 Bft) S-SW 211 0 min 0,000 mm 0,0 UV-I 0 W/m 10,8 C 11,3 C 4,0 km/h (1 Bft) 0,00 %
23.06.2015 04:55 11,3 C 97 % 1008,8 hPa 0,0 l/m 1,4 km/h (1 Bft) NO 36 0 min 0,000 mm 0,0 UV-I 0 W/m 10,8 C 11,3 C 4,0 km/h (1 Bft) 0,00 %
23.06.2015 05:00 11,3 C 97 % 1008,7 hPa 0,3 l/m 0,4 km/h (0 Bft) SW 219 0 min 0,000 mm 0,0 UV-I 0 W/m 10,8 C 11,3 C 4,0 km/h (1 Bft) 0,00 %
23.06.2015 05:05 11,3 C 97 % 1008,8 hPa 0,0 l/m 0,4 km/h (0 Bft) SW 233 0 min 0,000 mm 0,0 UV-I 0 W/m 10,8 C 11,3 C 4,0 km/h (1 Bft) 0,00 %
23.06.2015 05:10 11,3 C 97 % 1008,6 hPa 0,0 l/m 0,4 km/h (0 Bft) O-SO 123 0 min 0,000 mm 0,0 UV-I 0 W/m 10,8 C 11,3 C 4,0 km/h (1 Bft) 0,00 %
23.06.2015 05:15 11,3 C 97 % 1008,7 hPa 0,0 l/m 0,0 km/h (0 Bft) S 183 0 min 0,000 mm 0,0 UV-I 0 W/m 10,8 C 11,3 C 0,0 km/h (0 Bft) 0,00 %
23.06.2015 05:20 11,3 C 97 % 1008,7 hPa 0,0 l/m 1,4 km/h (1 Bft) W-NW 302 0 min 0,000 mm 0,0 UV-I 0 W/m 10,8 C 11,3 C 4,0 km/h (1 Bft) 0,00 %
23.06.2015 05:25 11,3 C 97 % 1008,7 hPa 0,0 l/m 1,8 km/h (1 Bft) S 174 0 min 0,000 mm 0,0 UV-I 0 W/m 10,8 C 11,3 C 4,0 km/h (1 Bft) 0,00 %
23.06.2015 05:30 11,2 C 97 % 1008,8 hPa 0,3 l/m 0,7 km/h (0 Bft) O-SO 105 0 min 0,000 mm 0,0 UV-I 0 W/m 10,7 C 11,2 C 4,0 km/h (1 Bft) 0,00 %
23.06.2015 05:35 11,1 C 96 % 1008,7 hPa 0,0 l/m 5,8 km/h (2 Bft) SW 227 0 min 0,000 mm 0,0 UV-I 0 W/m 10,5 C 11,1 C 7,9 km/h (2 Bft) 0,00 %
23.06.2015 05:40 11,1 C 95 % 1008,8 hPa 0,3 l/m 1,8 km/h (1 Bft) SW 218 0 min 0,000 mm 0,0 UV-I 0 W/m 10,3 C 11,1 C 4,0 km/h (1 Bft) 0,00 %
23.06.2015 05:45 11,0 C 94 % 1009,1 hPa 0,3 l/m 3,2 km/h (1 Bft) N-NW 335 0 min 0,000 mm 0,0 UV-I 0 W/m 10,1 C 11,0 C 7,9 km/h (2 Bft) 0,00 %
23.06.2015 05:50 10,9 C 94 % 1009,0 hPa 0,3 l/m 0,4 km/h (0 Bft) NW 312 0 min 0,000 mm 0,0 UV-I 0 W/m 10,0 C 10,9 C 4,0 km/h (1 Bft) 0,00 %
23.06.2015 05:55 10,8 C 94 % 1009,1 hPa 0,0 l/m 0,4 km/h (0 Bft) O-NO 63 0 min 0,000 mm 0,0 UV-I 0 W/m 9,9 C 10,8 C 4,0 km/h (1 Bft) 0,00 %
23.06.2015 06:00 10,8 C 94 % 1009,6 hPa 0,3 l/m 1,8 km/h (1 Bft) SW 223 0 min 0,000 mm 0,0 UV-I 0 W/m 9,9 C 10,8 C 4,0 km/h (1 Bft) 0,00 %
23.06.2015 06:05 10,7 C 94 % 1009,6 hPa 0,3 l/m 2,2 km/h (1 Bft) NO 35 0 min 0,000 mm 0,0 UV-I 0 W/m 9,8 C 10,7 C 4,0 km/h (1 Bft) 0,00 %
23.06.2015 06:10 10,7 C 94 % 1009,4 hPa 0,3 l/m 1,4 km/h (1 Bft) NO 45 0 min 0,000 mm 0,0 UV-I 0 W/m 9,8 C 10,7 C 4,0 km/h (1 Bft) 0,00 %
23.06.2015 06:15 10,7 C 94 % 1009,5 hPa 0,0 l/m 4,3 km/h (1 Bft) W-SW 252 0 min 0,000 mm 0,0 UV-I 1 W/m 9,8 C 10,7 C 7,9 km/h (2 Bft) 0,00 %
23.06.2015 06:20 10,7 C 95 % 1009,6 hPa 0,3 l/m 3,2 km/h (1 Bft) NO 47 0 min 0,000 mm 0,0 UV-I 5 W/m 9,9 C 10,7 C 7,9 km/h (2 Bft) 0,00 %
23.06.2015 06:25 10,7 C 95 % 1009,7 hPa 0,3 l/m 5,4 km/h (1 Bft) W-SW 256 0 min 0,000 mm 0,0 UV-I 4 W/m 9,9 C 10,7 C 11,9 km/h (2 Bft) 0,00 %
23.06.2015 06:30 10,6 C 95 % 1009,9 hPa 0,3 l/m 0,4 km/h (0 Bft) O 85 0 min 0,000 mm 0,0 UV-I 4 W/m 9,8 C 10,6 C 4,0 km/h (1 Bft) 0,00 %
23.06.2015 06:35 10,6 C 95 % 1009,9 hPa 0,3 l/m 0,0 km/h (0 Bft) O-SO 110 0 min 0,000 mm 0,0 UV-I 7 W/m 9,8 C 10,6 C 0,0 km/h (0 Bft) 0,00 %
23.06.2015 06:40 10,6 C 95 % 1009,9 hPa 0,0 l/m 1,8 km/h (1 Bft) NO 36 0 min 0,000 mm 0,0 UV-I 17 W/m 9,8 C 10,6 C 4,0 km/h (1 Bft) 0,00 %
23.06.2015 06:45 10,6 C 95 % 1009,8 hPa 0,3 l/m 2,9 km/h (1 Bft) N-NW 345 0 min 0,000 mm 0,0 UV-I 21 W/m 9,8 C 10,6 C 4,0 km/h (1 Bft) 0,00 %
23.06.2015 06:50 10,6 C 95 % 1010,1 hPa 0,3 l/m 2,2 km/h (1 Bft) O 85 0 min 0,000 mm 0,0 UV-I 22 W/m 9,8 C 10,6 C 4,0 km/h (1 Bft) 0,00 %
23.06.2015 06:55 10,6 C 95 % 1009,8 hPa 0,3 l/m 0,0 km/h (0 Bft) S 190 0 min 0,000 mm 0,0 UV-I 24 W/m 9,8 C 10,6 C 0,0 km/h (0 Bft) 0,00 %
23.06.2015 07:00 10,6 C 95 % 1009,8 hPa 0,0 l/m 0,0 km/h (0 Bft) S 181 0 min 0,000 mm 0,0 UV-I 26 W/m 9,8 C 10,6 C 0,0 km/h (0 Bft) 0,00 %
23.06.2015 07:05 10,6 C 95 % 1010,0 hPa 0,3 l/m 0,4 km/h (0 Bft) O-SO 115 0 min 0,000 mm 0,0 UV-I 21 W/m 9,8 C 10,6 C 4,0 km/h (1 Bft) 0,00 %
23.06.2015 07:10 10,6 C 95 % 1010,1 hPa 0,0 l/m 0,0 km/h (0 Bft) S 174 0 min 0,000 mm 0,0 UV-I 22 W/m 9,8 C 10,6 C 0,0 km/h (0 Bft) 0,00 %
23.06.2015 07:15 10,6 C 95 % 1010,2 hPa 0,0 l/m 0,0 km/h (0 Bft) SW 216 0 min 0,000 mm 0,0 UV-I 26 W/m 9,8 C 10,6 C 0,0 km/h (0 Bft) 0,00 %
23.06.2015 07:20 10,6 C 95 % 1010,1 hPa 0,3 l/m 0,4 km/h (0 Bft) W-SW 252 0 min 0,000 mm 0,0 UV-I 24 W/m 9,8 C 10,6 C 4,0 km/h (1 Bft) 0,00 %
23.06.2015 07:25 10,5 C 95 % 1010,1 hPa 0,0 l/m 0,4 km/h (0 Bft) O 94 0 min 0,000 mm 0,0 UV-I 25 W/m 9,7 C 10,5 C 4,0 km/h (1 Bft) 0,00 %
23.06.2015 07:30 10,5 C 94 % 1010,3 hPa 0,0 l/m 1,4 km/h (1 Bft) O 97 0 min 0,000 mm 0,0 UV-I 20 W/m 9,6 C 10,5 C 4,0 km/h (1 Bft) 0,00 %
23.06.2015 07:35 10,5 C 94 % 1010,1 hPa 0,0 l/m 1,4 km/h (1 Bft) S 190 0 min 0,000 mm 0,0 UV-I 17 W/m 9,6 C 10,5 C 4,0 km/h (1 Bft) 0,00 %
23.06.2015 07:40 10,4 C 94 % 1010,1 hPa 0,3 l/m 0,4 km/h (0 Bft) SO 137 0 min 0,000 mm 0,0 UV-I 20 W/m 9,5 C 10,4 C 4,0 km/h (1 Bft) 0,00 %
23.06.2015 07:45 10,4 C 94 % 1010,3 hPa 0,0 l/m 0,0 km/h (0 Bft) N-NO 30 0 min 0,000 mm 0,0 UV-I 20 W/m 9,5 C 10,4 C 0,0 km/h (0 Bft) 0,00 %
23.06.2015 07:50 10,4 C 94 % 1010,4 hPa 0,0 l/m 0,0 km/h (0 Bft) SO 131 0 min 0,000 mm 0,0 UV-I 30 W/m 9,5 C 10,4 C 0,0 km/h (0 Bft) 0,00 %
23.06.2015 07:55 10,4 C 94 % 1010,3 hPa 0,3 l/m 0,4 km/h (0 Bft) O-NO 58 0 min 0,000 mm 0,0 UV-I 34 W/m 9,5 C 10,4 C 4,0 km/h (1 Bft) 0,00 %
23.06.2015 08:00 10,4 C 94 % 1010,3 hPa 0,0 l/m 0,7 km/h (0 Bft) N 353 0 min 0,000 mm 0,0 UV-I 53 W/m 9,5 C 10,4 C 4,0 km/h (1 Bft) 0,00 %
23.06.2015 08:05 10,4 C 94 % 1010,4 hPa 0,0 l/m 1,4 km/h (1 Bft) S-SO 164 0 min 0,000 mm 0,0 UV-I 76 W/m 9,5 C 10,4 C 7,9 km/h (2 Bft) 0,00 %
23.06.2015 08:10 10,5 C 94 % 1010,5 hPa 0,0 l/m 1,8 km/h (1 Bft) N 4 0 min 0,000 mm 1,0 UV-I 104 W/m 9,6 C 10,5 C 7,9 km/h (2 Bft) 0,00 %
23.06.2015 08:15 10,6 C 94 % 1010,5 hPa 0,0 l/m 2,9 km/h (1 Bft) W-SW 251 0 min 0,000 mm 1,0 UV-I 113 W/m 9,7 C 10,6 C 7,9 km/h (2 Bft) 0,00 %
23.06.2015 08:20 10,7 C 93 % 1010,4 hPa 0,0 l/m 1,4 km/h (1 Bft) S-SW 212 0 min 0,000 mm 1,0 UV-I 132 W/m 9,6 C 10,7 C 4,0 km/h (1 Bft) 0,00 %
23.06.2015 08:25 10,8 C 93 % 1010,6 hPa 0,0 l/m 2,9 km/h (1 Bft) W-SW 256 0 min 0,000 mm 1,0 UV-I 116 W/m 9,7 C 10,8 C 4,0 km/h (1 Bft) 0,00 %
23.06.2015 08:30 10,8 C 92 % 1010,6 hPa 0,0 l/m 1,8 km/h (1 Bft) NO 37 0 min 0,000 mm 1,0 UV-I 129 W/m 9,6 C 10,8 C 4,0 km/h (1 Bft) 0,00 %
23.06.2015 08:35 10,9 C 91 % 1010,3 hPa 0,0 l/m 0,0 km/h (0 Bft) S-SO 159 0 min 0,000 mm 1,0 UV-I 137 W/m 9,5 C 10,9 C 0,0 km/h (0 Bft) 0,00 %
23.06.2015 08:40 11,0 C 91 % 1010,2 hPa 0,0 l/m 0,0 km/h (0 Bft) SO 128 0 min 0,000 mm 1,0 UV-I 152 W/m 9,6 C 11,0 C 0,0 km/h (0 Bft) 0,00 %
23.06.2015 08:45 11,0 C 90 % 1010,2 hPa 0,0 l/m 0,0 km/h (0 Bft) SW 231 0 min 0,000 mm 1,0 UV-I 126 W/m 9,4 C 11,0 C 0,0 km/h (0 Bft) 0,00 %
23.06.2015 08:50 11,1 C 89 % 1010,3 hPa 0,0 l/m 0,4 km/h (0 Bft) N-NO 30 0 min 0,000 mm 1,0 UV-I 132 W/m 9,4 C 11,1 C 4,0 km/h (1 Bft) 0,00 %
23.06.2015 08:55 11,1 C 89 % 1010,3 hPa 0,0 l/m 4,3 km/h (1 Bft) W-SW 256 0 min 0,000 mm 1,0 UV-I 133 W/m 9,4 C 11,1 C 7,9 km/h (2 Bft) 0,00 %
23.06.2015 09:00 11,1 C 89 % 1010,7 hPa 0,0 l/m 1,4 km/h (1 Bft) W-NW 298 0 min 0,000 mm 1,0 UV-I 114 W/m 9,4 C 11,1 C 4,0 km/h (1 Bft) 0,00 %
23.06.2015 09:05 11,1 C 88 % 1010,4 hPa 0,0 l/m 2,9 km/h (1 Bft) O-NO 67 0 min 0,000 mm 1,0 UV-I 91 W/m 9,2 C 11,1 C 7,9 km/h (2 Bft) 0,00 %
23.06.2015 09:10 11,0 C 88 % 1010,7 hPa 0,0 l/m 0,4 km/h (0 Bft) SW 231 0 min 0,000 mm 1,0 UV-I 104 W/m 9,1 C 11,0 C 4,0 km/h (1 Bft) 0,00 %
23.06.2015 09:15 11,0 C 88 % 1010,8 hPa 0,0 l/m 0,0 km/h (0 Bft) O-NO 57 0 min 0,000 mm 1,0 UV-I 108 W/m 9,1 C 11,0 C 0,0 km/h (0 Bft) 0,00 %
23.06.2015 09:20 11,0 C 88 % 1010,6 hPa 0,0 l/m 0,0 km/h (0 Bft) O-SO 115 0 min 0,000 mm 1,0 UV-I 109 W/m 9,1 C 11,0 C 0,0 km/h (0 Bft) 0,00 %
23.06.2015 09:25 10,9 C 89 % 1010,9 hPa 0,0 l/m 0,0 km/h (0 Bft) SW 231 0 min 0,000 mm 1,0 UV-I 113 W/m 9,2 C 10,9 C 0,0 km/h (0 Bft) 0,00 %
23.06.2015 09:30 10,8 C 89 % 1010,9 hPa 0,0 l/m 0,0 km/h (0 Bft) O-NO 61 0 min 0,000 mm 1,0 UV-I 140 W/m 9,1 C 10,8 C 0,0 km/h (0 Bft) 0,00 %
23.06.2015 09:35 10,7 C 89 % 1010,8 hPa 0,0 l/m 4,3 km/h (1 Bft) N 352 0 min 0,000 mm 1,0 UV-I 117 W/m 9,0 C 10,7 C 7,9 km/h (2 Bft) 0,00 %
23.06.2015 09:40 10,6 C 89 % 1010,6 hPa 0,0 l/m 9,0 km/h (2 Bft) SW 227 0 min 0,000 mm 1,0 UV-I 108 W/m 8,9 C 8,8 C 11,9 km/h (2 Bft) 0,00 %
23.06.2015 09:45 10,5 C 89 % 1010,7 hPa 0,0 l/m 0,0 km/h (0 Bft) S 187 0 min 0,000 mm 1,0 UV-I 114 W/m 8,8 C 10,5 C 0,0 km/h (0 Bft) 0,00 %
23.06.2015 09:50 10,5 C 89 % 1010,6 hPa 0,0 l/m 4,3 km/h (1 Bft) SW 227 0 min 0,000 mm 1,0 UV-I 138 W/m 8,8 C 10,5 C 7,9 km/h (2 Bft) 0,00 %
23.06.2015 09:55 10,5 C 89 % 1010,9 hPa 0,0 l/m 6,5 km/h (2 Bft) W-SW 252 0 min 0,000 mm 1,0 UV-I 168 W/m 8,8 C 10,5 C 7,9 km/h (2 Bft) 0,00 %
23.06.2015 10:00 10,6 C 89 % 1010,7 hPa 0,0 l/m 4,3 km/h (1 Bft) N-NO 14 0 min 0,000 mm 1,0 UV-I 147 W/m 8,9 C 10,6 C 7,9 km/h (2 Bft) 0,00 %
23.06.2015 10:05 10,7 C 88 % 1010,7 hPa 0,0 l/m 3,2 km/h (1 Bft) N-NW 342 0 min 0,000 mm 1,0 UV-I 194 W/m 8,8 C 10,7 C 4,0 km/h (1 Bft) 0,00 %
23.06.2015 10:10 10,8 C 87 % 1010,6 hPa 0,0 l/m 2,9 km/h (1 Bft) N-NO 22 0 min 0,000 mm 1,0 UV-I 294 W/m 8,7 C 10,8 C 7,9 km/h (2 Bft) 0,00 %
23.06.2015 10:15 10,9 C 87 % 1010,6 hPa 0,0 l/m 2,9 km/h (1 Bft) N-NW 342 0 min 0,000 mm 2,0 UV-I 336 W/m 8,8 C 10,9 C 4,0 km/h (1 Bft) 0,00 %
23.06.2015 10:20 11,3 C 86 % 1010,8 hPa 0,0 l/m 0,7 km/h (0 Bft) SW 219 0 min 0,000 mm 2,0 UV-I 266 W/m 9,0 C 11,3 C 4,0 km/h (1 Bft) 0,00 %
23.06.2015 10:25 11,7 C 85 % 1010,8 hPa 0,0 l/m 0,4 km/h (0 Bft) S 175 0 min 0,000 mm 2,0 UV-I 322 W/m 9,3 C 11,7 C 4,0 km/h (1 Bft) 0,00 %
23.06.2015 10:30 11,9 C 84 % 1010,9 hPa 0,0 l/m 2,2 km/h (1 Bft) W-NW 286 0 min 0,000 mm 2,0 UV-I 208 W/m 9,3 C 11,9 C 4,0 km/h (1 Bft) 0,00 %
23.06.2015 10:35 12,0 C 83 % 1010,7 hPa 0,0 l/m 1,8 km/h (1 Bft) SO 141 0 min 0,000 mm 1,0 UV-I 166 W/m 9,2 C 12,0 C 4,0 km/h (1 Bft) 0,00 %
23.06.2015 10:40 11,9 C 83 % 1010,9 hPa 0,0 l/m 0,4 km/h (0 Bft) O-SO 102 0 min 0,000 mm 1,0 UV-I 208 W/m 9,1 C 11,9 C 4,0 km/h (1 Bft) 0,00 %
23.06.2015 10:45 11,7 C 83 % 1010,8 hPa 0,0 l/m 0,4 km/h (0 Bft) S 175 0 min 0,000 mm 1,0 UV-I 189 W/m 8,9 C 11,7 C 4,0 km/h (1 Bft) 0,00 %
23.06.2015 10:50 11,7 C 83 % 1010,8 hPa 0,0 l/m 4,0 km/h (1 Bft) O 89 0 min 0,000 mm 1,0 UV-I 144 W/m 8,9 C 11,7 C 7,9 km/h (2 Bft) 0,00 %
23.06.2015 10:55 11,8 C 83 % 1011,2 hPa 0,0 l/m 0,7 km/h (0 Bft) S-SW 206 0 min 0,000 mm 1,0 UV-I 156 W/m 9,0 C 11,8 C 4,0 km/h (1 Bft) 0,00 %
23.06.2015 11:00 11,8 C 83 % 1010,9 hPa 0,0 l/m 2,9 km/h (1 Bft) S-SW 195 0 min 0,000 mm 1,0 UV-I 173 W/m 9,0 C 11,8 C 7,9 km/h (2 Bft) 0,00 %
23.06.2015 11:05 11,8 C 82 % 1011,0 hPa 0,0 l/m 1,4 km/h (1 Bft) O 84 0 min 0,000 mm 1,0 UV-I 204 W/m 8,8 C 11,8 C 4,0 km/h (1 Bft) 0,00 %
23.06.2015 11:10 11,9 C 83 % 1010,8 hPa 0,0 l/m 0,0 km/h (0 Bft) O-SO 123 0 min 0,000 mm 1,0 UV-I 244 W/m 9,1 C 11,9 C 0,0 km/h (0 Bft) 0,00 %
23.06.2015 11:15 12,1 C 83 % 1010,9 hPa 0,0 l/m 0,4 km/h (0 Bft) S-SO 168 0 min 0,000 mm 1,0 UV-I 388 W/m 9,3 C 12,1 C 4,0 km/h (1 Bft) 0,00 %
23.06.2015 11:20 12,6 C 82 % 1010,9 hPa 0,0 l/m 1,8 km/h (1 Bft) W-SW 258 5 min 0,000 mm 2,0 UV-I 742 W/m 9,6 C 12,6 C 4,0 km/h (1 Bft) 0,00 %
23.06.2015 11:25 13,3 C 78 % 1010,6 hPa 0,0 l/m 2,2 km/h (1 Bft) N-NW 344 5 min 0,000 mm 4,0 UV-I 916 W/m 9,5 C 13,3 C 11,9 km/h (2 Bft) 0,00 %
23.06.2015 11:30 14,2 C 74 % 1010,6 hPa 0,0 l/m 7,2 km/h (2 Bft) W-NW 293 5 min 0,000 mm 5,0 UV-I 903 W/m 9,6 C 13,7 C 15,8 km/h (3 Bft) 0,00 %
23.06.2015 11:35 15,0 C 70 % 1010,4 hPa 0,0 l/m 7,9 km/h (2 Bft) W-SW 253 5 min 0,000 mm 5,0 UV-I 521 W/m 9,6 C 14,2 C 11,9 km/h (2 Bft) 0,00 %
23.06.2015 11:40 15,5 C 69 % 1010,4 hPa 0,0 l/m 0,7 km/h (0 Bft) N-NW 348 0 min 0,000 mm 3,0 UV-I 423 W/m 9,8 C 15,5 C 4,0 km/h (1 Bft) 0,00 %
23.06.2015 11:45 15,6 C 69 % 1010,4 hPa 0,0 l/m 1,4 km/h (1 Bft) O-NO 59 5 min 0,000 mm 3,0 UV-I 829 W/m 9,9 C 15,6 C 4,0 km/h (1 Bft) 0,00 %
23.06.2015 11:50 15,4 C 70 % 1010,5 hPa 0,0 l/m 6,5 km/h (2 Bft) NW 307 0 min 0,000 mm 6,0 UV-I 343 W/m 10,0 C 15,4 C 7,9 km/h (2 Bft) 0,00 %
23.06.2015 11:55 15,3 C 69 % 1010,5 hPa 0,0 l/m 1,8 km/h (1 Bft) N-NW 347 0 min 0,000 mm 2,0 UV-I 309 W/m 9,6 C 15,3 C 4,0 km/h (1 Bft) 0,00 %
23.06.2015 12:00 15,5 C 68 % 1010,4 hPa 0,0 l/m 3,2 km/h (1 Bft) O 99 0 min 0,000 mm 2,0 UV-I 293 W/m 9,6 C 15,5 C 7,9 km/h (2 Bft) 0,00 %
23.06.2015 12:05 15,1 C 69 % 1010,6 hPa 0,0 l/m 4,0 km/h (1 Bft) SW 231 0 min 0,000 mm 2,0 UV-I 187 W/m 9,5 C 15,1 C 7,9 km/h (2 Bft) 0,00 %
23.06.2015 12:10 14,7 C 70 % 1010,7 hPa 0,0 l/m 1,4 km/h (1 Bft) O 88 0 min 0,000 mm 1,0 UV-I 296 W/m 9,3 C 14,7 C 4,0 km/h (1 Bft) 0,00 %
23.06.2015 12:15 14,5 C 70 % 1011,0 hPa 0,0 l/m 0,4 km/h (0 Bft) W-SW 247 0 min 0,000 mm 2,0 UV-I 278 W/m 9,1 C 14,5 C 4,0 km/h (1 Bft) 0,00 %
23.06.2015 12:20 14,5 C 70 % 1010,9 hPa 0,0 l/m 1,8 km/h (1 Bft) O 101 0 min 0,000 mm 2,0 UV-I 207 W/m 9,1 C 14,5 C 4,0 km/h (1 Bft) 0,00 %
23.06.2015 12:25 14,5 C 70 % 1010,9 hPa 0,0 l/m 4,7 km/h (1 Bft) W-SW 255 0 min 0,000 mm 2,0 UV-I 227 W/m 9,1 C 14,5 C 7,9 km/h (2 Bft) 0,00 %
23.06.2015 12:30 14,5 C 71 % 1011,2 hPa 0,0 l/m 0,0 km/h (0 Bft) S-SW 192 0 min 0,000 mm 2,0 UV-I 372 W/m 9,3 C 14,5 C 0,0 km/h (0 Bft) 0,00 %
23.06.2015 12:35 14,5 C 70 % 1011,0 hPa 0,0 l/m 0,4 km/h (0 Bft) W-SW 255 5 min 0,000 mm 2,0 UV-I 917 W/m 9,1 C 14,5 C 4,0 km/h (1 Bft) 0,00 %
23.06.2015 12:40 14,7 C 70 % 1011,1 hPa 0,0 l/m 1,4 km/h (1 Bft) N 350 0 min 0,000 mm 5,0 UV-I 335 W/m 9,3 C 14,7 C 4,0 km/h (1 Bft) 0,00 %
23.06.2015 12:45 15,6 C 67 % 1011,0 hPa 0,0 l/m 8,3 km/h (2 Bft) SW 231 0 min 0,000 mm 5,0 UV-I 340 W/m 9,5 C 14,6 C 15,8 km/h (3 Bft) 0,00 %
23.06.2015 12:50 16,3 C 65 % 1011,0 hPa 0,0 l/m 1,4 km/h (1 Bft) SO 136 0 min 0,000 mm 3,0 UV-I 266 W/m 9,7 C 16,3 C 4,0 km/h (1 Bft) 0,00 %
23.06.2015 12:55 16,0 C 67 % 1010,9 hPa 0,0 l/m 0,7 km/h (0 Bft) W 259 5 min 0,000 mm 2,0 UV-I 571 W/m 9,9 C 16,0 C 4,0 km/h (1 Bft) 0,00 %
23.06.2015 13:00 15,5 C 68 % 1011,0 hPa 0,0 l/m 4,0 km/h (1 Bft) S 171 0 min 0,000 mm 1,0 UV-I 355 W/m 9,6 C 15,5 C 11,9 km/h (2 Bft) 0,00 %
23.06.2015 13:05 15,2 C 69 % 1011,0 hPa 0,0 l/m 2,9 km/h (1 Bft) O-SO 106 0 min 0,000 mm 2,0 UV-I 356 W/m 9,6 C 15,2 C 4,0 km/h (1 Bft) 0,00 %
23.06.2015 13:10 15,2 C 67 % 1011,1 hPa 0,0 l/m 0,7 km/h (0 Bft) NW 304 5 min 0,000 mm 2,0 UV-I 833 W/m 9,1 C 15,2 C 4,0 km/h (1 Bft) 0,00 %
23.06.2015 13:15 15,2 C 67 % 1011,0 hPa 0,0 l/m 5,4 km/h (1 Bft) W-NW 299 0 min 0,000 mm 7,0 UV-I 336 W/m 9,1 C 15,2 C 7,9 km/h (2 Bft) 0,00 %
23.06.2015 13:20 15,5 C 65 % 1011,2 hPa 0,0 l/m 4,7 km/h (1 Bft) SW 214 5 min 0,000 mm 6,0 UV-I 749 W/m 8,9 C 15,5 C 7,9 km/h (2 Bft) 0,00 %
23.06.2015 13:25 16,2 C 63 % 1010,8 hPa 0,0 l/m 0,4 km/h (0 Bft) O-SO 108 0 min 0,000 mm 5,0 UV-I 302 W/m 9,1 C 16,2 C 4,0 km/h (1 Bft) 0,00 %
23.06.2015 13:30 16,8 C 60 % 1010,8 hPa 0,0 l/m 1,4 km/h (1 Bft) S 174 0 min 0,000 mm 3,0 UV-I 299 W/m 9,0 C 16,8 C 4,0 km/h (1 Bft) 0,00 %
23.06.2015 13:35 16,7 C 61 % 1010,8 hPa 0,0 l/m 5,8 km/h (2 Bft) W-NW 295 0 min 0,000 mm 2,0 UV-I 406 W/m 9,1 C 16,7 C 7,9 km/h (2 Bft) 0,00 %
23.06.2015 13:40 16,4 C 63 % 1011,0 hPa 0,0 l/m 1,8 km/h (1 Bft) N-NO 28 0 min 0,000 mm 6,0 UV-I 363 W/m 9,3 C 16,4 C 4,0 km/h (1 Bft) 0,00 %
23.06.2015 13:45 16,3 C 60 % 1011,0 hPa 0,0 l/m 3,2 km/h (1 Bft) N 351 0 min 0,000 mm 2,0 UV-I 228 W/m 8,5 C 16,3 C 7,9 km/h (2 Bft) 0,00 %
23.06.2015 13:50 16,5 C 60 % 1010,8 hPa 0,0 l/m 4,0 km/h (1 Bft) NW 320 0 min 0,000 mm 2,0 UV-I 187 W/m 8,7 C 16,5 C 7,9 km/h (2 Bft) 0,00 %
23.06.2015 13:55 16,4 C 58 % 1010,8 hPa 0,0 l/m 4,0 km/h (1 Bft) W-SW 254 0 min 0,000 mm 1,0 UV-I 197 W/m 8,1 C 16,4 C 11,9 km/h (2 Bft) 0,00 %
23.06.2015 14:00 16,1 C 62 % 1011,1 hPa 0,0 l/m 4,7 km/h (1 Bft) W-SW 255 0 min 0,000 mm 1,0 UV-I 279 W/m 8,8 C 16,1 C 7,9 km/h (2 Bft) 0,00 %
23.06.2015 14:05 15,7 C 60 % 1011,3 hPa 0,0 l/m 4,0 km/h (1 Bft) SO 131 0 min 0,000 mm 2,0 UV-I 443 W/m 8,0 C 15,7 C 4,0 km/h (1 Bft) 0,00 %
23.06.2015 14:10 15,6 C 58 % 1011,3 hPa 0,0 l/m 0,7 km/h (0 Bft) W-SW 256 0 min 0,000 mm 2,0 UV-I 205 W/m 7,4 C 15,6 C 4,0 km/h (1 Bft) 0,00 %
23.06.2015 14:15 15,8 C 57 % 1011,4 hPa 0,0 l/m 1,8 km/h (1 Bft) W-SW 246 0 min 0,000 mm 3,0 UV-I 150 W/m 7,3 C 15,8 C 4,0 km/h (1 Bft) 0,00 %
23.06.2015 14:20 16,2 C 54 % 1011,3 hPa 0,0 l/m 0,4 km/h (0 Bft) W-NW 284 0 min 0,000 mm 1,0 UV-I 221 W/m 6,9 C 16,2 C 4,0 km/h (1 Bft) 0,00 %
23.06.2015 14:25 16,1 C 57 % 1011,4 hPa 0,0 l/m 0,0 km/h (0 Bft) S 179 0 min 0,000 mm 1,0 UV-I 169 W/m 7,6 C 16,1 C 0,0 km/h (0 Bft) 0,00 %
23.06.2015 14:30 15,8 C 57 % 1011,4 hPa 0,0 l/m 7,2 km/h (2 Bft) W-SW 255 0 min 0,000 mm 1,0 UV-I 191 W/m 7,3 C 15,4 C 11,9 km/h (2 Bft) 0,00 %
23.06.2015 14:35 15,5 C 56 % 1011,6 hPa 0,0 l/m 2,9 km/h (1 Bft) W-NW 290 0 min 0,000 mm 1,0 UV-I 314 W/m 6,8 C 15,5 C 4,0 km/h (1 Bft) 0,00 %
23.06.2015 14:40 15,4 C 55 % 1011,6 hPa 0,0 l/m 0,0 km/h (0 Bft) W-SW 257 0 min 0,000 mm 1,0 UV-I 249 W/m 6,4 C 15,4 C 0,0 km/h (0 Bft) 0,00 %
23.06.2015 14:45 15,4 C 62 % 1011,6 hPa 0,0 l/m 0,4 km/h (0 Bft) N 351 0 min 0,000 mm 2,0 UV-I 204 W/m 8,2 C 15,4 C 4,0 km/h (1 Bft) 0,00 %
23.06.2015 14:50 15,7 C 62 % 1011,6 hPa 0,0 l/m 0,4 km/h (0 Bft) SW 222 0 min 0,000 mm 1,0 UV-I 148 W/m 8,4 C 15,7 C 4,0 km/h (1 Bft) 0,00 %
23.06.2015 14:55 15,9 C 63 % 1011,6 hPa 0,0 l/m 1,4 km/h (1 Bft) S-SW 197 0 min 0,000 mm 1,0 UV-I 181 W/m 8,9 C 15,9 C 4,0 km/h (1 Bft) 0,00 %
23.06.2015 15:00 15,8 C 62 % 1011,8 hPa 0,0 l/m 6,8 km/h (2 Bft) SW 226 0 min 0,000 mm 1,0 UV-I 200 W/m 8,5 C 15,6 C 7,9 km/h (2 Bft) 0,00 %
23.06.2015 15:05 15,6 C 64 % 1011,9 hPa 0,0 l/m 1,4 km/h (1 Bft) NW 317 0 min 0,000 mm 2,0 UV-I 148 W/m 8,8 C 15,6 C 4,0 km/h (1 Bft) 0,00 %
23.06.2015 15:10 15,6 C 64 % 1011,8 hPa 0,0 l/m 4,0 km/h (1 Bft) S-SW 193 5 min 0,000 mm 1,0 UV-I 889 W/m 8,8 C 15,6 C 7,9 km/h (2 Bft) 0,00 %
23.06.2015 15:15 15,6 C 63 % 1011,8 hPa 0,0 l/m 0,4 km/h (0 Bft) O 89 5 min 0,000 mm 1,0 UV-I 1026 W/m 8,6 C 15,6 C 4,0 km/h (1 Bft) 0,00 %
23.06.2015 15:20 15,5 C 65 % 1011,9 hPa 0,0 l/m 0,4 km/h (0 Bft) S 179 5 min 0,000 mm 5,0 UV-I 992 W/m 8,9 C 15,5 C 4,0 km/h (1 Bft) 0,00 %
23.06.2015 15:25 16,4 C 59 % 1011,8 hPa 0,0 l/m 4,3 km/h (1 Bft) S 191 0 min 0,000 mm 5,0 UV-I 332 W/m 8,4 C 16,4 C 7,9 km/h (2 Bft) 0,00 %
23.06.2015 15:30 17,6 C 57 % 1011,7 hPa 0,0 l/m 0,7 km/h (0 Bft) O-SO 123 0 min 0,000 mm 4,0 UV-I 175 W/m 9,0 C 17,6 C 4,0 km/h (1 Bft) 0,00 %
23.06.2015 15:35 18,0 C 59 % 1011,5 hPa 0,0 l/m 2,2 km/h (1 Bft) S 186 0 min 0,000 mm 2,0 UV-I 217 W/m 9,9 C 18,0 C 4,0 km/h (1 Bft) 0,00 %
23.06.2015 15:40 17,5 C 58 % 1011,6 hPa 0,0 l/m 5,4 km/h (1 Bft) SW 216 0 min 0,000 mm 1,0 UV-I 194 W/m 9,1 C 17,5 C 7,9 km/h (2 Bft) 0,00 %
23.06.2015 15:45 16,8 C 59 % 1012,1 hPa 0,0 l/m 0,4 km/h (0 Bft) W-SW 254 0 min 0,000 mm 1,0 UV-I 156 W/m 8,7 C 16,8 C 4,0 km/h (1 Bft) 0,00 %
23.06.2015 15:50 16,4 C 58 % 1012,1 hPa 0,0 l/m 0,0 km/h (0 Bft) SW 222 0 min 0,000 mm 1,0 UV-I 150 W/m 8,1 C 16,4 C 0,0 km/h (0 Bft) 0,00 %
23.06.2015 15:55 16,2 C 53 % 1012,2 hPa 0,0 l/m 0,0 km/h (0 Bft) S 188 0 min 0,000 mm 1,0 UV-I 142 W/m 6,6 C 16,2 C 0,0 km/h (0 Bft) 0,00 %
23.06.2015 16:00 16,1 C 54 % 1012,4 hPa 0,0 l/m 0,0 km/h (0 Bft) SO 136 0 min 0,000 mm 1,0 UV-I 125 W/m 6,8 C 16,1 C 0,0 km/h (0 Bft) 0,00 %
23.06.2015 16:05 15,9 C 54 % 1012,3 hPa 0,0 l/m 0,0 km/h (0 Bft) O-SO 106 0 min 0,000 mm 1,0 UV-I 128 W/m 6,6 C 15,9 C 0,0 km/h (0 Bft) 0,00 %
23.06.2015 16:10 15,6 C 53 % 1012,5 hPa 0,0 l/m 0,0 km/h (0 Bft) SW 227 0 min 0,000 mm 1,0 UV-I 121 W/m 6,1 C 15,6 C 0,0 km/h (0 Bft) 0,00 %
23.06.2015 16:15 15,4 C 54 % 1012,6 hPa 0,0 l/m 4,7 km/h (1 Bft) W-SW 255 0 min 0,000 mm 1,0 UV-I 111 W/m 6,1 C 15,4 C 7,9 km/h (2 Bft) 0,00 %
23.06.2015 16:20 15,3 C 53 % 1012,4 hPa 0,0 l/m 0,4 km/h (0 Bft) O 92 0 min 0,000 mm 1,0 UV-I 149 W/m 5,8 C 15,3 C 4,0 km/h (1 Bft) 0,00 %
23.06.2015 16:25 15,2 C 54 % 1012,7 hPa 0,0 l/m 0,0 km/h (0 Bft) O 92 5 min 0,000 mm 1,0 UV-I 426 W/m 6,0 C 15,2 C 0,0 km/h (0 Bft) 0,00 %
23.06.2015 16:30 15,1 C 54 % 1012,7 hPa 0,0 l/m 0,4 km/h (0 Bft) SW 225 0 min 0,000 mm 1,0 UV-I 311 W/m 5,9 C 15,1 C 4,0 km/h (1 Bft) 0,00 %
23.06.2015 16:35 15,3 C 55 % 1012,6 hPa 0,0 l/m 4,0 km/h (1 Bft) S-SW 201 0 min 0,000 mm 2,0 UV-I 244 W/m 6,3 C 15,3 C 7,9 km/h (2 Bft) 0,00 %
23.06.2015 16:40 15,8 C 49 % 1012,4 hPa 0,0 l/m 0,0 km/h (0 Bft) S 173 0 min 0,000 mm 2,0 UV-I 238 W/m 5,1 C 15,8 C 0,0 km/h (0 Bft) 0,00 %
23.06.2015 16:45 16,5 C 51 % 1012,5 hPa 0,0 l/m 0,0 km/h (0 Bft) S 188 0 min 0,000 mm 1,0 UV-I 341 W/m 6,3 C 16,5 C 0,0 km/h (0 Bft) 0,00 %
23.06.2015 16:50 16,7 C 49 % 1012,5 hPa 0,0 l/m 0,4 km/h (0 Bft) W-SW 255 5 min 0,000 mm 1,0 UV-I 953 W/m 5,9 C 16,7 C 4,0 km/h (1 Bft) 0,00 %
23.06.2015 16:55 16,6 C 50 % 1012,4 hPa 0,0 l/m 0,0 km/h (0 Bft) S 190 0 min 0,000 mm 2,0 UV-I 194 W/m 6,1 C 16,6 C 0,0 km/h (0 Bft) 0,00 %
23.06.2015 17:00 16,9 C 51 % 1012,5 hPa 0,0 l/m 0,4 km/h (0 Bft) O-SO 106 0 min 0,000 mm 2,0 UV-I 200 W/m 6,7 C 16,9 C 4,0 km/h (1 Bft) 0,00 %
23.06.2015 17:05 17,2 C 48 % 1012,5 hPa 0,0 l/m 4,3 km/h (1 Bft) W-SW 256 0 min 0,000 mm 1,0 UV-I 273 W/m 6,1 C 17,2 C 7,9 km/h (2 Bft) 0,00 %
23.06.2015 17:10 16,8 C 49 % 1012,6 hPa 0,0 l/m 1,8 km/h (1 Bft) W-SW 255 0 min 0,000 mm 1,0 UV-I 191 W/m 6,0 C 16,8 C 4,0 km/h (1 Bft) 0,00 %
23.06.2015 17:15 16,2 C 50 % 1012,7 hPa 0,0 l/m 0,4 km/h (0 Bft) S-SW 192 0 min 0,000 mm 1,0 UV-I 211 W/m 5,8 C 16,2 C 4,0 km/h (1 Bft) 0,00 %
23.06.2015 17:20 16,0 C 50 % 1012,7 hPa 0,0 l/m 3,2 km/h (1 Bft) W 260 0 min 0,000 mm 1,0 UV-I 200 W/m 5,6 C 16,0 C 11,9 km/h (2 Bft) 0,00 %
23.06.2015 17:25 16,0 C 52 % 1012,6 hPa 0,0 l/m 0,4 km/h (0 Bft) S 187 0 min 0,000 mm 1,0 UV-I 245 W/m 6,2 C 16,0 C 4,0 km/h (1 Bft) 0,00 %
23.06.2015 17:30 15,9 C 51 % 1012,4 hPa 0,0 l/m 0,0 km/h (0 Bft) S-SW 208 0 min 0,000 mm 1,0 UV-I 260 W/m 5,8 C 15,9 C 0,0 km/h (0 Bft) 0,00 %
23.06.2015 17:35 16,0 C 52 % 1012,5 hPa 0,0 l/m 4,3 km/h (1 Bft) SW 230 0 min 0,000 mm 1,0 UV-I 213 W/m 6,2 C 16,0 C 7,9 km/h (2 Bft) 0,00 %
23.06.2015 17:40 16,2 C 52 % 1012,1 hPa 0,0 l/m 2,2 km/h (1 Bft) W-SW 250 0 min 0,000 mm 1,0 UV-I 204 W/m 6,3 C 16,2 C 4,0 km/h (1 Bft) 0,00 %
23.06.2015 17:45 16,3 C 51 % 1012,3 hPa 0,0 l/m 0,4 km/h (0 Bft) S-SW 206 0 min 0,000 mm 1,0 UV-I 187 W/m 6,1 C 16,3 C 4,0 km/h (1 Bft) 0,00 %
23.06.2015 17:50 16,4 C 51 % 1012,4 hPa 0,0 l/m 3,2 km/h (1 Bft) W-SW 256 0 min 0,000 mm 1,0 UV-I 185 W/m 6,2 C 16,4 C 7,9 km/h (2 Bft) 0,00 %
23.06.2015 17:55 16,2 C 51 % 1012,3 hPa 0,0 l/m 3,2 km/h (1 Bft) W-SW 255 0 min 0,000 mm 1,0 UV-I 133 W/m 6,1 C 16,2 C 4,0 km/h (1 Bft) 0,00 %
23.06.2015 18:00 16,0 C 52 % 1012,6 hPa 0,0 l/m 0,0 km/h (0 Bft) O-SO 119 0 min 0,000 mm 1,0 UV-I 91 W/m 6,2 C 16,0 C 0,0 km/h (0 Bft) 0,00 %
23.06.2015 18:05 15,9 C 52 % 1012,5 hPa 0,0 l/m 1,8 km/h (1 Bft) W 263 0 min 0,000 mm 1,0 UV-I 86 W/m 6,1 C 15,9 C 4,0 km/h (1 Bft) 0,00 %
23.06.2015 18:10 15,8 C 51 % 1012,5 hPa 0,0 l/m 0,4 km/h (0 Bft) S-SW 193 0 min 0,000 mm 1,0 UV-I 71 W/m 5,7 C 15,8 C 4,0 km/h (1 Bft) 0,00 %
23.06.2015 18:15 15,5 C 53 % 1012,7 hPa 0,0 l/m 0,4 km/h (0 Bft) S 176 0 min 0,000 mm 1,0 UV-I 69 W/m 6,0 C 15,5 C 4,0 km/h (1 Bft) 0,00 %
23.06.2015 18:20 15,2 C 53 % 1012,8 hPa 0,0 l/m 0,0 km/h (0 Bft) S-SW 207 0 min 0,000 mm 0,0 UV-I 135 W/m 5,7 C 15,2 C 0,0 km/h (0 Bft) 0,00 %
23.06.2015 18:25 15,1 C 55 % 1012,7 hPa 0,0 l/m 0,4 km/h (0 Bft) O-SO 113 0 min 0,000 mm 0,0 UV-I 109 W/m 6,1 C 15,1 C 4,0 km/h (1 Bft) 0,00 %
23.06.2015 18:30 15,0 C 55 % 1012,8 hPa 0,0 l/m 0,0 km/h (0 Bft) S 175 0 min 0,000 mm 1,0 UV-I 94 W/m 6,0 C 15,0 C 0,0 km/h (0 Bft) 0,00 %
23.06.2015 18:35 15,0 C 55 % 1012,8 hPa 0,0 l/m 0,7 km/h (0 Bft) W-NW 297 0 min 0,000 mm 1,0 UV-I 63 W/m 6,0 C 15,0 C 4,0 km/h (1 Bft) 0,00 %
23.06.2015 18:40 15,1 C 55 % 1012,9 hPa 0,0 l/m 1,4 km/h (1 Bft) W-SW 251 0 min 0,000 mm 1,0 UV-I 36 W/m 6,1 C 15,1 C 4,0 km/h (1 Bft) 0,00 %
23.06.2015 18:45 15,1 C 55 % 1013,0 hPa 0,0 l/m 0,0 km/h (0 Bft) O-SO 123 0 min 0,000 mm 0,0 UV-I 35 W/m 6,1 C 15,1 C 0,0 km/h (0 Bft) 0,00 %
23.06.2015 18:50 15,1 C 56 % 1013,1 hPa 0,0 l/m 0,0 km/h (0 Bft) S 188 0 min 0,000 mm 0,0 UV-I 40 W/m 6,4 C 15,1 C 0,0 km/h (0 Bft) 0,00 %
23.06.2015 18:55 14,9 C 59 % 1013,1 hPa 0,0 l/m 0,0 km/h (0 Bft) S-SO 148 0 min 0,000 mm 0,0 UV-I 44 W/m 7,0 C 14,9 C 0,0 km/h (0 Bft) 0,00 %
23.06.2015 19:00 14,8 C 61 % 1013,0 hPa 0,0 l/m 0,0 km/h (0 Bft) S 174 0 min 0,000 mm 0,0 UV-I 50 W/m 7,4 C 14,8 C 0,0 km/h (0 Bft) 0,00 %
23.06.2015 19:05 14,7 C 60 % 1013,4 hPa 0,0 l/m 0,0 km/h (0 Bft) SO 129 0 min 0,000 mm 0,0 UV-I 33 W/m 7,0 C 14,7 C 0,0 km/h (0 Bft) 0,00 %
23.06.2015 19:10 14,6 C 61 % 1013,3 hPa 0,0 l/m 0,0 km/h (0 Bft) SO 133 0 min 0,000 mm 0,0 UV-I 20 W/m 7,2 C 14,6 C 0,0 km/h (0 Bft) 0,00 %
23.06.2015 19:15 14,5 C 62 % 1013,3 hPa 0,0 l/m 0,0 km/h (0 Bft) SO 138 0 min 0,000 mm 0,0 UV-I 11 W/m 7,3 C 14,5 C 0,0 km/h (0 Bft) 0,00 %
23.06.2015 19:20 14,5 C 62 % 1013,4 hPa 0,0 l/m 0,0 km/h (0 Bft) SW 232 0 min 0,000 mm 0,0 UV-I 17 W/m 7,3 C 14,5 C 0,0 km/h (0 Bft) 0,00 %
23.06.2015 19:25 14,3 C 64 % 1013,4 hPa 0,0 l/m 0,0 km/h (0 Bft) SO 129 0 min 0,000 mm 0,0 UV-I 5 W/m 7,6 C 14,3 C 0,0 km/h (0 Bft) 0,00 %
23.06.2015 19:30 14,2 C 65 % 1013,3 hPa 0,0 l/m 0,0 km/h (0 Bft) O-SO 110 0 min 0,000 mm 0,0 UV-I 10 W/m 7,7 C 14,2 C 0,0 km/h (0 Bft) 0,00 %
23.06.2015 19:35 14,2 C 66 % 1013,4 hPa 0,0 l/m 0,0 km/h (0 Bft) S 174 0 min 0,000 mm 0,0 UV-I 5 W/m 7,9 C 14,2 C 0,0 km/h (0 Bft) 0,00 %
23.06.2015 19:40 14,2 C 67 % 1013,4 hPa 0,0 l/m 0,4 km/h (0 Bft) W-SW 256 0 min 0,000 mm 0,0 UV-I 8 W/m 8,2 C 14,2 C 4,0 km/h (1 Bft) 0,00 %
23.06.2015 19:45 14,2 C 67 % 1013,4 hPa 0,0 l/m 0,0 km/h (0 Bft) S 174 0 min 0,000 mm 0,0 UV-I 3 W/m 8,2 C 14,2 C 0,0 km/h (0 Bft) 0,00 %
23.06.2015 19:50 14,2 C 68 % 1013,6 hPa 0,0 l/m 0,0 km/h (0 Bft) S 188 0 min 0,000 mm 0,0 UV-I 16 W/m 8,4 C 14,2 C 0,0 km/h (0 Bft) 0,00 %
23.06.2015 19:55 14,1 C 70 % 1013,6 hPa 0,0 l/m 0,0 km/h (0 Bft) S-SW 213 0 min 0,000 mm 0,0 UV-I 1 W/m 8,7 C 14,1 C 0,0 km/h (0 Bft) 0,00 %
23.06.2015 20:00 14,0 C 72 % 1013,6 hPa 0,0 l/m 0,0 km/h (0 Bft) S-SW 205 0 min 0,000 mm 0,0 UV-I 0 W/m 9,0 C 14,0 C 0,0 km/h (0 Bft) 0,00 %
23.06.2015 20:05 13,8 C 72 % 1013,7 hPa 0,0 l/m 0,0 km/h (0 Bft) W-SW 240 0 min 0,000 mm 0,0 UV-I 0 W/m 8,8 C 13,8 C 0,0 km/h (0 Bft) 0,00 %
23.06.2015 20:10 13,7 C 73 % 1013,8 hPa 0,0 l/m 0,0 km/h (0 Bft) SW 232 0 min 0,000 mm 0,0 UV-I 0 W/m 8,9 C 13,7 C 0,0 km/h (0 Bft) 0,00 %
23.06.2015 20:15 13,7 C 73 % 1013,8 hPa 0,0 l/m 0,0 km/h (0 Bft) S 180 0 min 0,000 mm 0,0 UV-I 0 W/m 8,9 C 13,7 C 0,0 km/h (0 Bft) 0,00 %
23.06.2015 20:20 13,7 C 74 % 1014,0 hPa 0,0 l/m 0,0 km/h (0 Bft) S-SW 194 0 min 0,000 mm 0,0 UV-I 0 W/m 9,2 C 13,7 C 0,0 km/h (0 Bft) 0,00 %
23.06.2015 20:25 13,6 C 73 % 1013,9 hPa 0,0 l/m 0,0 km/h (0 Bft) S-SW 213 0 min 0,000 mm 0,0 UV-I 0 W/m 8,9 C 13,6 C 0,0 km/h (0 Bft) 0,00 %
23.06.2015 20:30 13,6 C 73 % 1014,0 hPa 0,0 l/m 0,0 km/h (0 Bft) SO 142 0 min 0,000 mm 0,0 UV-I 0 W/m 8,9 C 13,6 C 0,0 km/h (0 Bft) 0,00 %
23.06.2015 20:35 13,5 C 74 % 1014,1 hPa 0,0 l/m 0,0 km/h (0 Bft) S 173 0 min 0,000 mm 0,0 UV-I 0 W/m 9,0 C 13,5 C 0,0 km/h (0 Bft) 0,00 %
23.06.2015 20:40 13,5 C 75 % 1014,2 hPa 0,0 l/m 0,0 km/h (0 Bft) SO 146 0 min 0,000 mm 0,0 UV-I 0 W/m 9,2 C 13,5 C 0,0 km/h (0 Bft) 0,00 %
23.06.2015 20:45 13,4 C 76 % 1014,7 hPa 0,0 l/m 0,7 km/h (0 Bft) W-SW 255 0 min 0,000 mm 0,0 UV-I 0 W/m 9,3 C 13,4 C 4,0 km/h (1 Bft) 0,00 %
23.06.2015 20:50 13,3 C 77 % 1014,7 hPa 0,0 l/m 0,0 km/h (0 Bft) SW 230 0 min 0,000 mm 0,0 UV-I 0 W/m 9,4 C 13,3 C 0,0 km/h (0 Bft) 0,00 %
23.06.2015 20:55 13,2 C 77 % 1014,7 hPa 0,0 l/m 0,0 km/h (0 Bft) SW 227 0 min 0,000 mm 0,0 UV-I 0 W/m 9,3 C 13,2 C 0,0 km/h (0 Bft) 0,00 %
23.06.2015 21:00 13,1 C 77 % 1015,0 hPa 0,0 l/m 0,4 km/h (0 Bft) S-SW 210 0 min 0,000 mm 0,0 UV-I 0 W/m 9,2 C 13,1 C 4,0 km/h (1 Bft) 0,00 %
23.06.2015 21:05 12,9 C 78 % 1015,0 hPa 0,0 l/m 1,4 km/h (1 Bft) W-SW 251 0 min 0,000 mm 0,0 UV-I 0 W/m 9,2 C 12,9 C 4,0 km/h (1 Bft) 0,00 %
23.06.2015 21:10 12,7 C 78 % 1015,3 hPa 0,0 l/m 0,4 km/h (0 Bft) S 184 0 min 0,000 mm 0,0 UV-I 0 W/m 9,0 C 12,7 C 4,0 km/h (1 Bft) 0,00 %
23.06.2015 21:15 12,6 C 79 % 1015,1 hPa 0,0 l/m 0,0 km/h (0 Bft) S-SO 147 0 min 0,000 mm 0,0 UV-I 0 W/m 9,1 C 12,6 C 0,0 km/h (0 Bft) 0,00 %
23.06.2015 21:20 12,5 C 81 % 1015,2 hPa 0,0 l/m 0,0 km/h (0 Bft) O-SO 105 0 min 0,000 mm 0,0 UV-I 0 W/m 9,3 C 12,5 C 0,0 km/h (0 Bft) 0,00 %
23.06.2015 21:25 12,3 C 82 % 1015,3 hPa 0,0 l/m 0,0 km/h (0 Bft) S 174 0 min 0,000 mm 0,0 UV-I 0 W/m 9,3 C 12,3 C 0,0 km/h (0 Bft) 0,00 %
23.06.2015 21:30 12,2 C 82 % 1015,3 hPa 0,0 l/m 0,0 km/h (0 Bft) SO 142 0 min 0,000 mm 0,0 UV-I 0 W/m 9,2 C 12,2 C 0,0 km/h (0 Bft) 0,00 %
23.06.2015 21:35 12,1 C 83 % 1015,5 hPa 0,0 l/m 0,0 km/h (0 Bft) SW 224 0 min 0,000 mm 0,0 UV-I 0 W/m 9,3 C 12,1 C 0,0 km/h (0 Bft) 0,00 %
23.06.2015 21:40 12,1 C 83 % 1015,6 hPa 0,0 l/m 0,0 km/h (0 Bft) SO 137 0 min 0,000 mm 0,0 UV-I 0 W/m 9,3 C 12,1 C 0,0 km/h (0 Bft) 0,00 %
23.06.2015 21:45 12,0 C 83 % 1015,8 hPa 0,0 l/m 0,0 km/h (0 Bft) O 94 0 min 0,000 mm 0,0 UV-I 0 W/m 9,2 C 12,0 C 0,0 km/h (0 Bft) 0,00 %
23.06.2015 21:50 12,0 C 83 % 1015,9 hPa 0,0 l/m 0,0 km/h (0 Bft) S 178 0 min 0,000 mm 0,0 UV-I 0 W/m 9,2 C 12,0 C 0,0 km/h (0 Bft) 0,00 %
23.06.2015 21:55 11,9 C 82 % 1016,0 hPa 0,0 l/m 0,0 km/h (0 Bft) S 178 0 min 0,000 mm 0,0 UV-I 0 W/m 8,9 C 11,9 C 0,0 km/h (0 Bft) 0,00 %
23.06.2015 22:00 11,8 C 83 % 1015,8 hPa 0,0 l/m 0,0 km/h (0 Bft) S 178 0 min 0,000 mm 0,0 UV-I 0 W/m 9,0 C 11,8 C 0,0 km/h (0 Bft) 0,00 %
23.06.2015 22:05 11,7 C 83 % 1016,1 hPa 0,0 l/m 0,7 km/h (0 Bft) O-NO 71 0 min 0,000 mm 0,0 UV-I 0 W/m 8,9 C 11,7 C 4,0 km/h (1 Bft) 0,00 %
23.06.2015 22:10 11,7 C 84 % 1016,3 hPa 0,0 l/m 1,8 km/h (1 Bft) W 278 0 min 0,000 mm 0,0 UV-I 0 W/m 9,1 C 11,7 C 4,0 km/h (1 Bft) 0,00 %
23.06.2015 22:15 11,6 C 84 % 1016,4 hPa 0,0 l/m 0,0 km/h (0 Bft) O 94 0 min 0,000 mm 0,0 UV-I 0 W/m 9,0 C 11,6 C 0,0 km/h (0 Bft) 0,00 %
23.06.2015 22:20 11,5 C 84 % 1016,3 hPa 0,0 l/m 0,0 km/h (0 Bft) W-NW 298 0 min 0,000 mm 0,0 UV-I 0 W/m 8,9 C 11,5 C 0,0 km/h (0 Bft) 0,00 %
23.06.2015 22:25 11,4 C 84 % 1016,4 hPa 0,0 l/m 0,4 km/h (0 Bft) W-SW 255 0 min 0,000 mm 0,0 UV-I 0 W/m 8,8 C 11,4 C 4,0 km/h (1 Bft) 0,00 %
23.06.2015 22:30 11,3 C 84 % 1016,6 hPa 0,0 l/m 0,0 km/h (0 Bft) S 185 0 min 0,000 mm 0,0 UV-I 0 W/m 8,7 C 11,3 C 0,0 km/h (0 Bft) 0,00 %
23.06.2015 22:35 11,3 C 84 % 1016,8 hPa 0,0 l/m 0,0 km/h (0 Bft) SO 127 0 min 0,000 mm 0,0 UV-I 0 W/m 8,7 C 11,3 C 0,0 km/h (0 Bft) 0,00 %
23.06.2015 22:40 11,3 C 83 % 1017,0 hPa 0,0 l/m 4,7 km/h (1 Bft) W-SW 251 0 min 0,000 mm 0,0 UV-I 0 W/m 8,5 C 11,3 C 7,9 km/h (2 Bft) 0,00 %
23.06.2015 22:45 11,3 C 82 % 1017,0 hPa 0,0 l/m 4,0 km/h (1 Bft) S-SW 193 0 min 0,000 mm 0,0 UV-I 0 W/m 8,3 C 11,3 C 7,9 km/h (2 Bft) 0,00 %
23.06.2015 22:50 11,3 C 82 % 1017,1 hPa 0,0 l/m 1,4 km/h (1 Bft) NO 52 0 min 0,000 mm 0,0 UV-I 0 W/m 8,3 C 11,3 C 4,0 km/h (1 Bft) 0,00 %
23.06.2015 22:55 11,2 C 82 % 1017,1 hPa 0,0 l/m 9,4 km/h (2 Bft) W-SW 256 0 min 0,000 mm 0,0 UV-I 0 W/m 8,2 C 9,3 C 11,9 km/h (2 Bft) 0,00 %
23.06.2015 23:00 11,2 C 82 % 1017,2 hPa 0,0 l/m 4,0 km/h (1 Bft) W-NW 302 0 min 0,000 mm 0,0 UV-I 0 W/m 8,2 C 11,2 C 7,9 km/h (2 Bft) 0,00 %
23.06.2015 23:05 11,2 C 82 % 1017,1 hPa 0,0 l/m 0,0 km/h (0 Bft) W-NW 288 0 min 0,000 mm 0,0 UV-I 0 W/m 8,2 C 11,2 C 0,0 km/h (0 Bft) 0,00 %
23.06.2015 23:10 11,2 C 82 % 1017,2 hPa 0,0 l/m 4,3 km/h (1 Bft) W-SW 252 0 min 0,000 mm 0,0 UV-I 0 W/m 8,2 C 11,2 C 7,9 km/h (2 Bft) 0,00 %
23.06.2015 23:15 11,2 C 82 % 1017,3 hPa 0,0 l/m 0,0 km/h (0 Bft) O 79 0 min 0,000 mm 0,0 UV-I 0 W/m 8,2 C 11,2 C 0,0 km/h (0 Bft) 0,00 %
23.06.2015 23:20 11,2 C 82 % 1017,6 hPa 0,0 l/m 0,0 km/h (0 Bft) S-SW 212 0 min 0,000 mm 0,0 UV-I 0 W/m 8,2 C 11,2 C 0,0 km/h (0 Bft) 0,00 %
23.06.2015 23:25 11,1 C 83 % 1017,6 hPa 0,0 l/m 0,4 km/h (0 Bft) O 98 0 min 0,000 mm 0,0 UV-I 0 W/m 8,3 C 11,1 C 4,0 km/h (1 Bft) 0,00 %
23.06.2015 23:30 11,0 C 83 % 1017,4 hPa 0,0 l/m 0,0 km/h (0 Bft) O 79 0 min 0,000 mm 0,0 UV-I 0 W/m 8,2 C 11,0 C 0,0 km/h (0 Bft) 0,00 %
23.06.2015 23:35 11,0 C 83 % 1017,5 hPa 0,0 l/m 0,0 km/h (0 Bft) S 177 0 min 0,000 mm 0,0 UV-I 0 W/m 8,2 C 11,0 C 0,0 km/h (0 Bft) 0,00 %
23.06.2015 23:40 10,9 C 84 % 1017,6 hPa 0,0 l/m 0,0 km/h (0 Bft) S-SW 208 0 min 0,000 mm 0,0 UV-I 0 W/m 8,3 C 10,9 C 0,0 km/h (0 Bft) 0,00 %
23.06.2015 23:45 10,9 C 83 % 1017,7 hPa 0,0 l/m 1,4 km/h (1 Bft) W-SW 255 0 min 0,000 mm 0,0 UV-I 0 W/m 8,1 C 10,9 C 4,0 km/h (1 Bft) 0,00 %
23.06.2015 23:50 10,8 C 83 % 1017,8 hPa 0,0 l/m 0,4 km/h (0 Bft) O-SO 107 0 min 0,000 mm 0,0 UV-I 0 W/m 8,0 C 10,8 C 4,0 km/h (1 Bft) 0,00 %
23.06.2015 23:55 10,8 C 81 % 1017,7 hPa 0,0 l/m 5,4 km/h (1 Bft) W-SW 256 0 min 0,000 mm 0,0 UV-I 0 W/m 7,7 C 10,8 C 7,9 km/h (2 Bft) 0,00 %
_ Min-Zeit 02:15 17:05 02:10 - 00:25 - - - - - - 16:40 00:00 00:25 00:00
Minimum _ 10,3 C 48 % 1003,8 hPa - 0,0 km/h (0 Bft) - - - - - - 5,1 C 8,1 C 0,0 km/h (0 Bft) 0,00 %
_ Max-Zeit 15:35 02:00 23:50 03:10 00:00 - - 11:20 00:00 13:15 15:15 04:40 15:35 00:00 00:00
Maximum _ 18,0 C 98 % 1017,8 hPa 1,2 l/m 11,9 km/h
S (2 Bft)
- - 5 min 0,000 mm 7,0 UV-I 1026 W/m 10,8 C 18,0 C 15,8 km/h
S (3 Bft)
0,00 %
Durchschnitt _ 12,8 C 79 % 1011,1 hPa #10,2 l/m 1,4 km/h (1 Bft) W-SW - #1:10 h #0,000 mm 1,7 UV-I 212 W/m 8,9 C 12,8 C 3,4 km/h (1 Bft) 0,00 %